Location: ?
(35.3436°N, 139.3168°E)
Time: 20:05:22
(UTC+00:00)

X-37B - Visible Passes

Search period start: 22 January 2021 00:00
Search period end: 01 February 2021 00:00
Orbit: 385 x 390 km, 45.0° (Epoch: 20 January)

Date Brightness Start Highest point End Pass type
(mag) Time Alt. Az. Time Alt. Az. Time Alt. Az.
22 Jan 2.7 09:32:31 10° NW 09:34:43 17° NNW 09:34:50 17° N visible
23 Jan 2.4 08:33:33 10° WNW 08:36:07 22° NNW 08:38:42 10° NE visible
24 Jan 2.8 09:12:59 10° NW 09:14:53 15° N 09:15:44 13° NNE visible
25 Jan 3.3 09:51:45 10° NNW 09:52:20 12° NNW 09:52:20 12° NNW visible
26 Jan 2.9 08:53:16 10° NNW 08:55:04 14° N 08:56:41 11° NNE visible
27 Jan 2.6 09:31:34 10° NNW 09:33:21 18° N 09:33:21 18° N visible
28 Jan 2.7 08:33:17 10° NNW 08:35:15 15° N 08:37:13 10° NE visible
28 Jan 3.4 10:09:28 10° NW 10:10:05 14° NW 10:10:05 14° NW visible
29 Jan 1.9 09:11:16 10° NW 09:13:58 25° NNE 09:14:38 23° NE visible
30 Jan 1.4 09:49:15 10° NW 09:51:36 45° NW 09:51:36 45° NW visible
31 Jan 1.2 08:50:59 10° NW 08:53:59 39° NNE 08:56:25 14° E visible
31 Jan 3.7 10:27:51 10° W 10:28:45 16° W 10:28:45 16° W visible
